map of CEB home
CEB - Airport
Location
City:  Lapu-Lapu, Philippines
Name:Mactan-Cebu International Airport
ICAO:RPVM
IATA:CEB

Details
Type:Airport (Aerodrome, Airfield)
Use:Public/Civil, Military, International (customs port of entry)
Latitude:1018'27"N (10.307542)
Longitude:12358'46"E (123.979439)
Datum:WGS 1984
Elevation:31 ft (9 m)
Variation:1.41W (WMM2015 magnetic declination)
-0.11 annual change
Runways:1
Longest:10827 × 148 ft (3300 × 45 m), paved

Time
Time Zone:UTC+8
Local Time:

Weather
METAR:RPVM 151700Z 14003KT 070V130 6000 RA SCT020 OVC090 21/19 Q1009 RMK A2980
TAF:RPVM 151700Z 1518/1624 26008KT 9000 -RA SCT020 OVC090
TEMPO 1518/1524 28006KT 7000 RA SCT020 OVC080
TEMPO 1603/1609 25012G24KT 4000 +RA SCT018 OVC070

Related Locations
Nearby:
Farthest:SJPP: 12449 mi / 20035 km
Alta Floresta [Aero Rural], MT, BR

Find:

   beyond  
but within

Other Information
Maps:
NOTAMs:
Links:
Sources:

  
flag of Philippines   

Sectional Chart

Flight Planning
at skyvector.com

Satellite Image

Google Maps Satellite view

 

Copyright © 2004-2017 Karl L. Swartz. All rights reserved.
The Great Circle Mapper name and logo are trademarks of the Great Circle Mapper.
All other trademarks mentioned herein belong to their respective owners.
Please see credits for attibutions and further copyright information.

  Follow gcmap on Facebook Follow gcmap on Twitter Follow gcmap on Google+ GCmap on LinkedIn

hCard Microformat

Geo Microformat